Precipitable_Water
0.13 0.14 0.17 0.18 0.17 0.17 0.16 0.16 0.15 0.15 0.15 0.15 0.15 0.16 0.18 0.19 0.19 0.18 0.18 0.17 0.17 0.17 0.19 0.20 0.22 0.22 0.23 0.24 0.26 0.27 0.28 0.28 0.27 0.27 0.28 0.29 0.29 0.30 0.30 0.32 0.34 0.36
0.13 0.13 0.15 0.16 0.15 0.15 0.15 0.15 0.14 0.14 0.14 0.14 0.15 0.15 0.17 0.18 0.18 0.17 0.17 0.16 0.17 0.18 0.20 0.22 0.23 0.24 0.24 0.25 0.26 0.26 0.26 0.27 0.27 0.29 0.29 0.30 0.30 0.30 0.30 0.30 0.31 0.34
0.10 0.11 0.12 0.13 0.13 0.13 0.13 0.14 0.14 0.14 0.14 0.14 0.15 0.16 0.16 0.17 0.17 0.17 0.16 0.16 0.19 0.21 0.23 0.24 0.25 0.25 0.25 0.26 0.27 0.27 0.27 0.27 0.28 0.30 0.31 0.30 0.30 0.30 0.30 0.30 0.30 0.32
0.11 0.12 0.13 0.13 0.13 0.13 0.13 0.12 0.12 0.12 0.13 0.14 0.15 0.16 0.16 0.16 0.16 0.16 0.17 0.19 0.22 0.24 0.25 0.26 0.26 0.26 0.26 0.26 0.27 0.27 0.28 0.29 0.30 0.31 0.31 0.31 0.31 0.30 0.30 0.31 0.31 0.31
0.13 0.13 0.12 0.11 0.11 0.11 0.11 0.11 0.12 0.12 0.13 0.13 0.14 0.15 0.16 0.16 0.17 0.19 0.20 0.22 0.22 0.22 0.24 0.26 0.28 0.27 0.27 0.27 0.27 0.27 0.29 0.30 0.31 0.32 0.31 0.30 0.31 0.30 0.30 0.30 0.30 0.31
0.13 0.12 0.12 0.11 0.11 0.11 0.11 0.12 0.13 0.13 0.13 0.13 0.13 0.14 0.15 0.15 0.16 0.17 0.18 0.19 0.20 0.23 0.25 0.27 0.27 0.28 0.27 0.27 0.28 0.28 0.29 0.30 0.31 0.32 0.30 0.29 0.30 0.30 0.30 0.30 0.30 0.31
0.12 0.12 0.11 0.11 0.13 0.13 0.12 0.12 0.12 0.12 0.12 0.12 0.12 0.13 0.13 0.14 0.15 0.16 0.17 0.18 0.19 0.23 0.25 0.26 0.27 0.28 0.28 0.28 0.28 0.28 0.29 0.30 0.31 0.30 0.30 0.29 0.30 0.29 0.30 0.30 0.30 0.30
0.12 0.12 0.11 0.12 0.12 0.12 0.12 0.11 0.11 0.11 0.11 0.11 0.12 0.12 0.13 0.14 0.15 0.16 0.17 0.18 0.20 0.23 0.25 0.26 0.27 0.28 0.29 0.28 0.28 0.28 0.29 0.30 0.30 0.30 0.30 0.29 0.29 0.29 0.30 0.31 0.31 0.30
0.12 0.12 0.12 0.11 0.11 0.11 0.11 0.11 0.11 0.11 0.11 0.11 0.12 0.13 0.14 0.15 0.15 0.16 0.17 0.19 0.21 0.23 0.25 0.25 0.25 0.26 0.27 0.28 0.29 0.29 0.29 0.30 0.31 0.30 0.30 0.29 0.29 0.29 0.29 0.30 0.30 0.29
0.12 0.12 0.11 0.11 0.11 0.11 0.11 0.11 0.11 0.11 0.11 0.12 0.13 0.14 0.15 0.16 0.16 0.17 0.18 0.20 0.22 0.23 0.23 0.24 0.24 0.24 0.25 0.26 0.27 0.29 0.30 0.30 0.30 0.30 0.30 0.30 0.30 0.30 0.29 0.29 0.29 0.28
0.11 0.11 0.11 0.11 0.11 0.11 0.11 0.11 0.12 0.12 0.12 0.13 0.13 0.14 0.15 0.16 0.16 0.18 0.18 0.19 0.20 0.20 0.21 0.22 0.23 0.24 0.24 0.24 0.26 0.28 0.30 0.30 0.31 0.31 0.31 0.31 0.30 0.30 0.30 0.30 0.29 0.28
0.11 0.11 0.11 0.12 0.12 0.12 0.12 0.12 0.12 0.12 0.13 0.13 0.13 0.14 0.14 0.15 0.15 0.16 0.17 0.18 0.19 0.20 0.20 0.21 0.23 0.23 0.23 0.24 0.25 0.26 0.27 0.29 0.30 0.31 0.30 0.30 0.29 0.29 0.28 0.28 0.28 0.28
0.11 0.11 0.12 0.12 0.12 0.12 0.12 0.12 0.13 0.13 0.13 0.13 0.14 0.14 0.14 0.14 0.15 0.16 0.16 0.17 0.18 0.19 0.20 0.21 0.22 0.23 0.23 0.24 0.25 0.26 0.26 0.27 0.28 0.28 0.28 0.28 0.28 0.27 0.26 0.26 0.27 0.28
0.12 0.12 0.12 0.13 0.13 0.13 0.13 0.13 0.13 0.14 0.14 0.14 0.14 0.14 0.14 0.15 0.15 0.16 0.16 0.17 0.18 0.19 0.20 0.21 0.22 0.22 0.23 0.24 0.25 0.25 0.26 0.26 0.26 0.26 0.26 0.26 0.26 0.26 0.25 0.25 0.26 0.28
0.13 0.13 0.13 0.13 0.14 0.14 0.14 0.13 0.14 0.14 0.14 0.15 0.15 0.15 0.15 0.15 0.16 0.16 0.17 0.17 0.18 0.19 0.20 0.20 0.21 0.22 0.22 0.23 0.24 0.24 0.25 0.25 0.26 0.26 0.25 0.25 0.25 0.25 0.24 0.24 0.25 0.27
0.13 0.13 0.14 0.14 0.14 0.14 0.14 0.14 0.14 0.15 0.15 0.15 0.16 0.16 0.16 0.17 0.17 0.17 0.18 0.19 0.19 0.20 0.20 0.21 0.21 0.22 0.22 0.23 0.24 0.24 0.25 0.25 0.25 0.26 0.26 0.25 0.25 0.24 0.24 0.24 0.25 0.27
0.13 0.13 0.14 0.14 0.14 0.14 0.15 0.15 0.15 0.16 0.16 0.16 0.17 0.17 0.17 0.18 0.18 0.19 0.19 0.20 0.21 0.21 0.21 0.22 0.22 0.22 0.22 0.23 0.23 0.24 0.25 0.25 0.25 0.25 0.26 0.26 0.25 0.25 0.24 0.24 0.25 0.26
0.13 0.14 0.14 0.14 0.15 0.15 0.15 0.16 0.16 0.16 0.16 0.17 0.17 0.18 0.18 0.19 0.19 0.20 0.21 0.21 0.22 0.22 0.22 0.23 0.23 0.24 0.23 0.23 0.23 0.24 0.25 0.25 0.25 0.25 0.25 0.25 0.25 0.25 0.25 0.25 0.25 0.26
0.14 0.14 0.14 0.14 0.15 0.16 0.16 0.16 0.17 0.17 0.17 0.17 0.18 0.19 0.19 0.20 0.20 0.21 0.21 0.22 0.22 0.22 0.22 0.23 0.24 0.25 0.25 0.25 0.24 0.24 0.24 0.25 0.25 0.24 0.24 0.24 0.25 0.25 0.25 0.25 0.26 0.27
0.14 0.14 0.15 0.15 0.15 0.16 0.16 0.17 0.17 0.17 0.18 0.18 0.19 0.20 0.20 0.20 0.21 0.21 0.22 0.22 0.23 0.23 0.23 0.24 0.25 0.25 0.26 0.26 0.26 0.26 0.25 0.25 0.25 0.25 0.25 0.26 0.26 0.26 0.27 0.27 0.27 0.28
0.15 0.15 0.15 0.15 0.16 0.16 0.17 0.17 0.17 0.18 0.18 0.19 0.20 0.20 0.20 0.21 0.21 0.22 0.22 0.23 0.23 0.24 0.24 0.25 0.26 0.27 0.28 0.28 0.29 0.29 0.29 0.29 0.29 0.29 0.29 0.28 0.29 0.30 0.29 0.29 0.30 0.31
0.15 0.15 0.15 0.16 0.16 0.17 0.17 0.17 0.18 0.18 0.19 0.20 0.20 0.21 0.21 0.22 0.22 0.23 0.23 0.24 0.24 0.24 0.25 0.25 0.27 0.28 0.29 0.29 0.30 0.31 0.32 0.31 0.31 0.31 0.31 0.31 0.31 0.31 0.32 0.32 0.32 0.32
0.15 0.16 0.16 0.16 0.17 0.17 0.17 0.18 0.18 0.19 0.19 0.20 0.20 0.20 0.21 0.21 0.21 0.22 0.23 0.24 0.24 0.25 0.25 0.26 0.27 0.29 0.30 0.31 0.31 0.32 0.32 0.32 0.32 0.32 0.32 0.31 0.31 0.32 0.33 0.33 0.33 0.33
0.16 0.16 0.16 0.17 0.17 0.17 0.17 0.18 0.18 0.19 0.19 0.19 0.19 0.20 0.20 0.21 0.21 0.22 0.23 0.23 0.23 0.24 0.24 0.25 0.26 0.29 0.30 0.31 0.31 0.31 0.32 0.31 0.31 0.31 0.30 0.30 0.31 0.32 0.33 0.33 0.33 0.33
0.16 0.16 0.16 0.16 0.16 0.17 0.17 0.17 0.18 0.18 0.19 0.20 0.20 0.20 0.21 0.21 0.22 0.22 0.23 0.24 0.24 0.25 0.25 0.24 0.24 0.26 0.28 0.30 0.31 0.32 0.31 0.31 0.31 0.30 0.29 0.29 0.29 0.29 0.31 0.31 0.31 0.32
0.16 0.16 0.16 0.16 0.16 0.17 0.18 0.18 0.19 0.19 0.20 0.20 0.20 0.21 0.21 0.22 0.22 0.22 0.22 0.23 0.24 0.24 0.25 0.25 0.24 0.25 0.27 0.29 0.29 0.29 0.29 0.29 0.29 0.27 0.26 0.27 0.28 0.28 0.28 0.29 0.30 0.30
Wind_Speed
36 35 35 34 33 33 33 33 33 33 33 33 33 33 32 32 32 33 35 36 37 39 40 42 43 44 45 47 49 50 52 54 57 59 61 62 63 64 66 67 67 67
35 35 35 34 34 34 34 33 33 32 32 32 32 32 31 32 32 33 34 35 35 36 37 39 40 42 42 43 45 47 48 51 53 55 58 60 61 62 63 65 66 67
36 36 36 35 35 35 34 33 32 31 31 31 30 30 30 31 32 33 33 33 32 32 34 35 38 39 40 41 42 43 45 47 49 51 54 56 58 59 60 62 63 65
35 34 34 34 34 34 34 33 32 31 31 30 29 28 29 30 31 31 31 30 30 30 31 33 35 36 38 38 39 40 42 43 45 47 50 52 54 56 57 58 60 62
33 32 33 35 35 34 34 33 32 31 30 29 29 29 28 28 29 28 28 28 28 28 29 30 32 34 35 36 37 38 39 40 42 44 46 48 50 53 54 56 57 59
32 33 35 35 35 34 32 31 30 29 28 27 27 27 27 28 28 28 27 27 27 27 27 28 30 32 33 34 35 36 37 38 39 41 43 45 47 49 52 53 55 56
33 34 35 33 32 31 31 30 30 29 28 27 27 27 27 28 28 28 27 27 27 27 26 26 27 29 31 32 33 34 35 36 38 39 40 42 43 46 48 50 52 54
33 33 33 33 32 31 31 31 31 30 29 28 27 27 26 27 27 27 26 26 26 26 25 25 25 27 28 30 31 32 33 34 35 37 38 39 40 42 45 47 49 51
33 32 32 32 32 32 31 30 30 30 29 28 27 26 25 25 25 25 25 25 25 24 24 24 24 24 25 27 28 30 31 32 33 35 36 36 37 39 41 43 46 48
32 31 30 30 31 31 30 29 28 27 27 26 25 24 23 23 23 23 23 23 23 23 23 23 24 24 24 25 26 27 28 29 31 32 33 34 35 36 38 40 42 44
29 29 28 28 28 28 28 27 26 25 25 24 24 23 22 22 22 22 22 22 22 23 23 23 24 24 24 25 25 25 26 26 28 29 30 31 32 33 35 36 38 40
27 26 26 25 24 24 25 24 23 23 23 23 23 22 22 22 22 21 22 22 22 23 23 24 24 24 24 25 25 25 25 25 26 27 28 29 30 31 32 33 35 37
25 24 23 22 21 21 21 21 21 21 22 22 21 21 21 21 21 21 21 22 22 23 23 24 24 24 25 25 25 25 24 24 24 25 26 27 28 29 30 31 32 34
22 21 20 19 18 17 18 18 18 19 19 19 20 20 20 20 20 21 21 22 22 23 23 24 24 25 25 25 26 25 24 24 24 24 24 25 26 27 27 28 30 32
19 17 16 16 15 14 14 15 15 16 17 17 18 18 18 19 19 20 21 21 22 23 23 24 24 25 26 26 26 26 25 25 24 24 24 24 25 25 25 26 27 29
17 15 14 13 12 11 11 12 12 13 14 15 16 16 16 17 18 19 19 20 21 22 22 23 24 24 26 27 28 28 27 26 25 25 25 25 25 25 25 25 25 26
16 15 13 11 10 9 8 8 9 10 11 12 13 13 14 15 16 17 18 18 19 20 20 21 22 23 26 27 29 29 29 28 27 26 26 26 26 26 25 25 24 25
16 14 13 11 9 8 7 7 7 7 8 9 10 11 11 12 13 15 16 16 17 18 19 19 20 22 24 26 27 29 29 29 28 28 27 27 27 26 26 25 25 25
16 14 13 11 9 8 7 6 5 6 6 7 7 8 9 10 11 12 13 14 15 16 17 18 19 20 21 23 25 27 28 28 28 28 28 28 28 27 27 26 25 25
16 14 13 11 10 8 7 5 5 5 5 6 6 7 8 9 10 11 11 11 12 13 13 14 16 17 18 20 21 23 26 27 27 27 27 27 27 27 27 26 26 25
16 15 13 12 10 9 8 6 5 5 6 6 6 7 8 9 9 10 10 10 9 10 10 11 13 14 15 16 18 20 22 24 25 26 26 26 26 26 26 26 25 25
16 15 14 13 11 10 9 8 7 6 7 7 7 7 7 8 8 8 8 9 9 8 9 10 11 12 13 14 15 17 18 20 21 23 24 24 24 25 25 25 25 25
15 15 14 13 12 11 10 9 8 7 7 7 7 7 7 7 7 7 7 8 8 8 9 9 10 11 12 13 14 14 15 16 18 19 20 21 22 23 23 24 24 24
15 15 14 13 12 11 11 10 9 8 8 8 8 8 8 8 8 7 7 7 8 8 8 9 10 10 11 11 12 13 14 15 16 17 18 19 20 21 22 23 23 24
15 14 14 14 13 12 11 11 10 10 9 9 8 8 8 8 7 8 8 8 8 8 8 9 9 9 9 10 10 11 12 13 14 15 17 18 19 20 21 22 23 24
14 14 14 14 13 13 12 11 11 10 10 9 9 8 8 8 8 9 9 9 9 9 9 10 10 10 10 10 10 10 11 12 13 14 15 17 18 19 20 21 22 23
Wind_Direction
286 287 286 283 280 279 279 279 279 278 276 274 272 270 265 262 262 262 262 261 259 257 255 252 249 247 246 244 244 243 242 241 240 239 239 238 238 238 238 237 236 235
286 286 285 283 282 281 280 280 279 278 276 275 273 269 264 263 263 264 264 263 260 258 255 253 250 247 245 244 243 243 242 241 240 238 238 237 238 238 238 238 237 236
286 285 284 283 283 282 281 280 278 277 276 275 272 267 263 263 265 266 266 264 260 257 256 253 250 247 245 243 243 243 242 241 239 238 237 237 237 237 238 238 237 237
286 285 284 284 283 282 281 280 278 277 275 272 269 265 264 264 265 266 266 263 260 259 257 255 251 247 245 243 242 242 242 241 239 237 237 237 237 237 238 238 237 237
286 285 284 284 283 281 280 278 278 276 273 270 268 266 265 264 263 264 264 263 262 260 258 255 252 248 245 243 242 241 240 240 239 238 237 237 237 237 238 238 238 237
286 286 286 284 281 279 277 277 276 275 273 271 268 266 264 262 261 262 263 263 262 261 259 256 253 249 245 243 242 240 239 239 238 238 238 237 237 238 238 238 238 237
289 289 287 284 280 278 276 276 275 275 273 271 269 267 265 262 260 260 262 262 262 261 259 257 254 250 246 243 241 240 239 239 238 238 238 238 238 238 238 237 237 237
291 289 286 283 280 278 277 275 274 273 273 271 269 267 265 263 260 259 261 261 260 260 259 257 255 250 246 243 241 240 240 239 238 238 238 238 238 238 238 237 237 237
293 290 286 282 280 278 276 274 272 271 270 268 267 265 264 262 259 258 259 259 259 258 258 257 255 251 247 243 241 240 239 239 238 238 238 239 239 239 238 237 237 237
295 292 288 284 279 276 274 272 271 269 267 265 265 264 263 262 259 257 257 256 256 257 259 258 256 252 247 243 242 240 239 238 238 238 238 239 239 239 239 238 237 237
299 295 291 287 281 277 274 271 268 267 265 263 263 264 264 261 259 257 255 255 256 257 258 258 256 252 247 244 242 240 239 238 238 237 237 238 239 239 239 239 238 238
302 298 294 290 284 278 273 269 266 265 263 262 262 262 262 261 259 257 256 256 257 258 258 258 256 252 248 245 242 240 239 238 237 237 237 238 238 239 240 240 240 239
305 300 296 292 286 279 273 267 263 262 262 262 260 260 260 260 259 257 256 257 258 259 259 257 255 252 248 245 243 241 239 238 237 237 237 238 239 240 241 241 241 240
310 305 300 294 288 281 274 266 262 261 262 261 259 259 259 259 258 258 257 257 258 259 259 257 255 251 247 244 242 241 240 238 237 236 237 238 239 240 241 242 242 241
319 313 307 300 293 285 276 267 263 262 262 261 260 259 258 257 258 258 258 259 259 259 258 255 253 249 246 243 241 240 240 239 238 237 237 239 240 241 242 243 243 242
329 324 318 311 302 293 280 271 267 266 265 264 262 260 259 259 259 259 260 261 260 260 257 254 251 248 245 243 241 241 240 240 239 239 238 239 240 241 243 244 243 242
339 336 332 326 317 306 292 280 276 274 272 269 265 262 261 261 261 261 262 262 261 259 257 255 251 248 246 244 242 242 241 240 240 240 240 240 240 241 243 244 244 242
348 347 344 341 335 325 312 299 291 286 281 275 270 267 266 265 264 264 265 264 262 259 257 255 252 249 247 244 242 242 241 241 240 240 241 241 241 242 242 243 243 242
354 353 352 351 348 341 331 320 308 298 291 284 278 274 272 270 269 269 269 268 267 263 260 257 254 252 248 245 243 241 241 240 240 239 240 240 241 242 242 242 242 241
359 359 359 358 357 353 347 337 325 312 303 297 292 288 284 280 278 277 276 275 273 269 264 260 256 252 249 245 243 241 240 239 238 238 238 238 239 239 240 241 240 239
4 5 4 4 4 3 359 352 342 331 323 316 311 306 299 295 291 289 285 281 278 273 269 264 258 254 249 245 242 242 241 239 237 236 236 237 237 238 238 239 238 238
8 8 8 9 9 7 5 1 354 346 339 332 324 317 311 305 299 295 291 286 283 279 274 269 265 261 256 250 247 246 242 238 235 235 234 234 236 237 237 238 238 238
10 9 9 9 8 8 6 4 360 354 348 342 335 328 325 319 310 303 295 288 285 283 278 273 270 268 264 258 253 249 242 235 233 232 231 232 234 235 237 238 239 239
10 10 10 9 9 9 8 5 3 360 355 351 346 340 336 330 321 314 305 294 287 283 279 276 273 271 268 263 257 251 244 237 234 233 233 234 236 237 238 239 240 240
10 11 13 12 12 12 10 7 6 5 2 359 354 348 343 338 330 323 314 305 297 290 285 281 275 270 268 264 258 251 246 241 238 238 238 239 240 241 241 242 242 242
10 11 12 12 11 10 9 8 6 5 2 358 354 349 344 339 334 328 320 312 305 298 291 286 278 269 266 265 260 253 247 243 240 240 241 242 243 244 244 244 244 243